Theta_e
315 316 316 316 316 316 316 316 316 316 316 316 315 314 314 314 314 313 314 318 313 308 308 308 307 305 305 304 299 302 301 301 298 293 292 293 292 296 295 298 298 296 295 294 298 296 294 309 312 307 308 320 320 320
314 315 315 315 316 316 316 316 316 316 316 316 315 314 313 313 313 312 312 317 316 310 309 313 312 313 311 309 305 306 303 302 298 292 294 296 294 295 294 292 302 296 302 302 301 301 304 304 305 306 311 316 320 319
314 314 315 315 315 316 316 316 316 316 316 316 315 314 313 313 312 310 311 315 312 309 309 309 308 313 315 314 314 303 308 307 299 302 298 298 292 295 292 296 298 301 304 302 304 301 300 302 304 305 310 317 320 320
314 314 314 315 315 315 315 316 316 316 316 316 315 314 313 312 312 310 311 314 312 309 303 306 314 311 315 313 312 311 310 311 310 304 298 298 293 298 298 299 298 300 302 301 298 300 301 301 302 304 307 314 317 317
314 314 313 314 315 315 315 315 316 316 316 316 315 313 313 312 311 312 312 313 314 308 303 307 311 311 313 312 311 310 309 309 307 302 298 296 301 299 301 301 299 304 300 300 299 304 304 302 302 305 304 308 314 315
313 313 313 313 314 315 315 315 315 316 316 316 314 313 311 311 310 307 307 314 314 313 307 304 310 309 311 311 310 309 309 309 307 305 301 304 306 303 298 298 302 303 305 307 303 308 309 304 303 305 305 306 310 312
313 313 313 313 314 314 315 315 314 315 315 314 312 311 310 310 310 305 306 310 310 316 308 304 305 310 310 310 310 309 309 307 306 304 303 304 303 303 302 300 304 303 302 305 308 306 304 306 303 305 306 306 308 308
312 313 313 313 314 314 314 313 313 313 313 313 311 310 310 309 309 306 311 309 309 307 306 301 304 305 310 306 303 310 305 307 306 304 306 303 305 303 297 301 302 301 300 301 302 303 304 304 304 304 305 305 305 305
312 312 312 313 313 313 313 313 313 313 312 312 310 310 309 308 305 308 311 311 309 304 299 304 303 302 309 308 306 305 307 301 309 303 305 304 304 299 301 304 303 301 301 299 299 300 301 301 302 303 304 304 304 304
312 312 312 313 313 313 312 313 313 312 312 310 310 309 305 307 313 312 307 306 305 306 306 303 311 304 308 308 304 300 305 302 299 303 307 302 301 305 304 307 308 306 305 304 301 300 301 301 302 302 303 304 304 304
312 312 312 313 313 312 312 312 312 311 309 314 311 307 310 314 309 306 303 301 304 301 306 307 306 306 309 303 302 304 302 305 298 301 301 301 301 303 307 308 309 308 307 305 305 304 303 303 303 303 303 304 304 305
312 312 312 312 312 312 312 312 312 314 316 312 310 310 310 307 306 302 301 303 301 300 303 308 309 310 310 311 304 304 301 303 295 306 301 298 304 307 307 307 308 308 306 304 304 304 304 304 304 304 304 304 304 305
311 311 311 311 312 312 312 312 311 311 311 311 307 304 303 305 295 297 297 300 303 308 306 310 306 308 308 308 306 303 297 299 307 300 297 300 308 309 309 308 308 307 306 304 304 305 305 304 305 305 305 306 307 307
311 311 311 311 311 312 311 311 311 311 311 305 303 291 299 299 303 305 305 309 312 309 309 310 306 302 309 305 307 298 304 304 297 294 296 303 309 310 311 310 308 306 305 304 305 306 306 306 306 307 307 308 308 308
311 310 311 311 311 311 311 311 311 312 309 304 304 296 300 306 306 306 310 312 313 315 309 307 306 305 304 303 307 304 298 295 298 298 303 307 313 313 312 310 309 308 307 306 307 307 307 307 307 307 308 309 308 308
310 310 311 312 312 311 310 311 311 311 307 304 306 305 309 304 305 306 309 310 316 315 313 312 304 302 302 305 300 298 297 295 302 306 308 312 313 314 313 312 312 310 309 308 308 308 308 308 307 307 308 309 309 309
310 312 312 311 311 310 310 312 311 306 307 304 306 309 308 306 305 306 312 313 317 313 304 306 300 300 306 301 299 306 301 306 307 309 312 314 315 315 315 314 313 310 309 309 309 309 309 310 310 309 308 309 309 310
312 313 311 309 311 310 312 313 310 306 303 307 307 305 309 308 306 307 310 316 315 314 311 303 311 303 302 299 304 310 311 312 314 313 312 314 317 316 315 314 312 310 310 310 310 310 309 309 308 308 309 310 310 310
313 312 310 310 312 312 309 307 312 304 306 312 309 311 310 311 314 314 316 316 317 321 315 308 303 304 306 311 311 312 314 314 311 310 312 316 316 315 315 313 312 310 310 310 309 307 307 310 309 309 309 309 308 309
310 310 310 311 313 311 308 307 311 305 305 311 313 312 313 313 315 316 315 315 315 314 309 306 304 311 315 317 318 316 317 317 312 308 308 310 312 313 313 310 308 311 310 310 310 305 309 309 310 310 310 309 308 307
311 310 311 312 310 314 310 308 306 309 309 308 313 312 312 315 313 313 311 315 312 311 310 314 316 315 320 321 321 321 319 317 312 311 309 308 310 310 310 310 311 309 307 307 307 307 304 308 309 310 308 306 307 308
311 311 309 309 306 308 308 310 307 311 309 311 310 311 310 310 312 313 314 310 309 313 316 317 322 320 321 322 322 320 319 317 316 310 305 307 310 309 309 310 310 308 309 309 309 308 308 310 311 312 308 307 303 305
310 310 308 308 306 301 299 312 307 309 305 308 309 306 309 312 315 316 309 310 314 321 321 321 322 324 322 317 316 316 317 316 312 312 311 311 312 311 311 311 312 311 310 311 313 312 311 306 309 309 308 306 305 304
310 309 306 304 303 298 307 305 308 306 308 305 305 303 308 313 315 312 310 313 317 321 319 321 320 316 314 315 311 313 314 315 313 313 313 311 309 311 311 311 311 313 314 314 313 313 314 314 307 308 307 305 304 303
299 300 301 293 306 303 302 303 304 304 302 306 304 304 308 316 310 309 310 316 317 317 319 320 319 315 311 311 311 311 317 312 310 310 313 314 313 315 313 313 314 314 315 313 310 310 311 312 312 309 307 305 304 303
295 304 298 305 304 304 305 302 303 304 305 304 305 311 316 311 305 304 311 316 317 318 318 319 318 316 312 313 312 311 312 314 314 312 316 315 314 313 310 310 310 313 313 311 309 307 307 309 309 306 305 303 295 302
297 303 307 313 308 307 306 310 310 307 305 303 308 307 309 301 303 310 316 318 318 321 324 323 322 318 314 314 315 316 317 316 315 316 318 319 318 317 314 310 309 310 312 309 308 308 308 307 306 305 303 305 305 304
306 307 302 307 307 308 304 306 305 303 305 311 310 304 303 304 305 313 318 318 321 323 325 324 323 320 318 317 317 317 317 318 318 318 317 316 314 314 314 315 311 294 309 309 309 309 308 307 306 305 305 305 306 306
304 308 307 303 304 305 306 305 306 309 313 313 308 307 309 316 318 317 317 321 323 322 321 321 320 321 320 320 320 319 319 319 316 312 311 310 311 311 311 310 308 310 308 306 290 299 304 304 304 304 304 305 306 306
304 309 305 303 301 301 306 310 310 315 318 316 317 317 317 317 320 320 321 319 318 319 321 320 319 319 317 318 318 319 322 321 320 317 313 313 314 313 311 309 308 308 308 308 306 305 292 300 300 305 305 307 307 306
311 308 304 305 305 307 310 313 316 315 315 314 316 313 313 316 320 321 321 322 322 322 321 319 320 321 321 321 320 320 319 324 322 322 321 321 314 312 311 310 308 308 307 308 308 307 306 305 306 306 306 306 306 304
305 304 303 302 306 312 313 312 310 308 309 311 312 315 315 315 313 319 324 324 322 321 316 319 322 322 325 327 327 325 305 323 323 323 320 316 314 312 311 309 308 307 308 307 307 306 306 305 306 306 306 306 306 306
305 306 306 306 306 307 312 311 308 308 310 312 313 314 315 314 312 321 329 329 327 326 328 327 325 324 323 324 326 323 310 325 310 298 296 298 299 303 309 308 307 307 307 307 307 308 306 306 306 306 306 306 306 305
Wind_Speed
10 11 10 10 10 9 9 8 8 8 8 8 8 8 8 8 7 6 2 1 5 3 5 6 8 7 5 5 5 5 3 3 1 3 2 3 5 5 6 1 7 8 10 8 13 12 8 11 4 5 5 5 7 7
11 11 11 10 11 10 10 9 8 7 8 7 7 7 7 7 7 7 2 1 2 5 6 4 9 10 9 8 7 5 6 4 3 3 4 4 2 4 6 5 4 5 8 6 6 7 6 7 8 7 7 5 11 11
12 12 12 12 10 11 10 10 9 8 7 6 7 7 6 5 5 3 4 2 3 5 7 6 6 13 9 10 8 7 2 7 4 5 2 3 4 1 4 3 3 2 4 2 8 6 6 7 8 9 10 9 12 14
13 13 12 12 11 11 11 11 10 9 9 7 7 6 5 4 4 2 4 1 4 4 5 5 3 6 4 6 7 6 2 7 7 3 4 4 3 3 3 4 1 2 7 5 5 6 6 7 7 8 7 7 11 12
15 13 13 12 12 11 11 11 11 11 10 8 7 6 4 4 3 5 5 3 5 6 5 4 3 3 7 7 7 6 7 8 4 4 3 3 3 5 4 4 3 0 3 4 3 10 4 6 4 6 8 8 8 8
15 13 13 12 12 11 13 12 11 11 10 8 6 4 4 3 4 2 4 4 3 4 5 4 4 4 4 6 7 6 6 6 5 3 4 4 5 5 4 1 4 4 0 4 4 5 10 10 5 6 6 7 7 8
13 13 13 12 11 11 12 11 10 10 9 8 4 3 4 4 3 2 4 4 1 3 5 4 3 5 3 4 4 5 6 5 6 5 5 4 2 4 4 1 10 7 5 3 8 7 9 7 5 5 5 5 3 5
12 12 12 12 10 10 10 10 10 10 8 5 3 2 3 4 2 2 1 5 1 2 3 4 1 4 4 3 2 1 5 5 7 5 3 5 2 4 3 7 8 7 2 7 6 4 8 7 5 7 5 5 6 7
12 13 12 10 9 10 9 9 8 7 5 3 2 4 3 2 2 2 5 7 2 1 3 3 2 1 4 1 1 3 3 4 3 4 1 3 1 4 2 12 14 14 9 12 8 8 8 8 9 8 7 7 7 7
12 12 10 10 9 8 8 8 6 3 4 4 3 3 3 1 8 8 2 4 4 4 5 4 1 1 3 1 2 3 2 2 3 4 2 4 3 4 4 7 9 10 7 9 9 9 9 9 9 9 9 8 8 7
12 11 11 9 8 7 7 5 4 6 5 3 2 1 2 7 2 3 3 3 2 3 4 3 4 2 2 5 3 2 3 1 3 3 4 2 2 6 9 8 8 9 8 7 3 7 9 9 8 8 8 7 8 8
12 12 10 8 7 6 5 4 7 3 1 2 3 2 2 3 4 4 3 3 4 2 2 3 1 2 2 2 3 3 3 2 2 2 3 3 3 8 11 12 11 10 10 8 8 8 7 7 6 7 7 7 6 5
12 11 10 8 7 6 5 7 9 9 7 2 1 3 2 2 2 4 5 3 3 5 4 3 2 1 4 4 3 3 4 1 2 4 3 3 6 7 10 11 11 10 11 10 9 8 6 6 4 3 5 4 3 3
12 11 10 9 8 6 5 8 11 5 1 2 3 1 3 4 4 1 2 3 3 2 1 1 2 1 1 4 3 3 1 3 3 3 0 4 5 8 10 11 12 13 13 12 10 8 7 6 6 5 5 3 3 2
11 10 8 8 9 7 8 9 11 2 2 2 3 4 6 2 1 3 5 5 2 3 2 2 1 1 3 4 3 2 3 4 3 3 3 5 4 8 11 12 12 12 11 10 9 9 8 8 7 6 5 4 5 5
10 7 6 9 7 10 12 11 2 1 1 2 5 4 3 2 4 5 8 5 3 4 2 1 3 4 5 3 3 4 2 3 1 2 4 2 4 7 9 10 10 9 10 9 8 7 6 6 6 6 6 7 8 8
11 2 9 10 9 14 11 2 3 4 3 4 4 3 4 2 2 2 6 3 5 4 2 2 4 3 3 3 4 3 4 3 5 5 2 2 5 7 9 9 9 8 8 7 6 6 6 6 6 7 9 9 10 10
2 5 11 17 11 6 1 2 2 3 5 5 4 3 5 3 3 4 4 4 4 4 4 3 4 5 4 3 2 1 2 3 2 2 3 6 6 7 7 9 9 9 8 7 7 7 7 8 8 8 9 10 10 11
5 7 17 12 3 3 3 3 3 3 6 3 3 6 4 5 6 7 4 5 5 1 3 2 4 5 6 3 3 4 3 1 2 5 6 6 6 7 7 7 8 8 8 7 7 7 6 8 8 7 8 7 8 8
12 14 11 3 1 2 3 2 2 2 3 1 4 4 4 3 2 4 5 6 6 3 5 5 5 5 2 1 3 4 3 2 3 6 7 6 6 8 8 7 7 8 7 7 7 7 7 7 8 9 8 7 8 8
5 5 3 1 1 2 1 2 3 3 2 4 3 3 4 3 5 6 5 5 5 4 5 7 6 6 7 5 3 3 1 3 4 4 7 7 7 6 7 7 7 7 7 7 7 7 9 8 6 5 6 5 5 5
4 7 3 1 1 2 3 2 2 1 3 3 3 2 4 5 5 5 6 5 4 7 8 6 4 3 4 6 4 3 2 5 3 3 2 8 8 7 7 7 7 7 7 7 7 7 7 6 6 5 5 4 3 5
7 3 2 3 4 3 3 2 4 4 4 1 1 3 4 3 3 6 4 5 6 4 5 5 4 3 0 5 5 5 5 6 6 5 5 4 5 5 6 6 7 7 7 7 7 8 8 4 4 7 6 5 5 4
3 5 4 4 4 3 2 3 3 3 3 3 3 3 3 2 5 4 4 3 3 2 4 5 5 5 5 5 5 6 5 4 5 5 4 4 5 6 4 4 5 5 8 7 7 6 6 7 5 8 8 7 6 5
3 2 3 3 3 3 4 3 4 4 5 5 4 4 3 4 4 4 1 2 3 4 5 5 5 5 4 6 6 6 5 5 5 5 5 4 4 2 6 8 6 7 7 5 5 5 5 6 6 8 9 8 6 7
2 5 5 6 4 5 4 4 5 6 5 3 3 3 2 3 3 2 1 3 3 2 4 5 5 6 5 6 6 6 7 6 3 4 2 3 4 5 5 5 5 4 1 3 5 6 7 4 5 6 6 5 5 6
3 5 4 1 0 2 5 3 2 4 4 3 2 3 2 1 2 3 2 3 3 3 1 3 4 6 6 6 4 4 3 4 4 2 2 2 2 2 3 4 4 4 2 3 4 4 2 3 2 4 5 4 4 6
3 1 6 6 4 3 5 4 4 4 3 1 2 4 2 6 3 0 1 4 4 4 3 3 4 5 4 4 5 5 5 5 5 5 4 4 4 3 2 1 4 3 3 4 3 2 1 2 3 3 2 3 4 5
4 4 4 7 4 3 5 5 4 3 2 2 3 1 0 2 3 3 4 7 6 4 3 5 6 6 5 6 6 6 6 6 7 8 9 6 7 7 5 4 5 3 4 5 6 7 5 5 6 6 6 6 7 7
5 6 5 5 5 6 6 8 5 3 2 3 2 3 3 4 4 4 8 6 6 5 4 5 7 7 7 8 8 9 7 7 9 9 8 6 3 6 6 6 5 4 3 2 3 6 4 6 6 6 4 6 6 9
3 3 4 5 4 4 8 6 3 4 6 7 5 6 7 4 4 6 8 8 7 6 6 7 8 8 7 8 8 7 6 6 9 11 8 1 6 6 8 7 5 4 3 2 1 2 4 4 4 6 7 10 11 11
3 5 3 4 4 3 3 3 4 4 3 7 8 7 6 4 5 3 3 5 6 7 6 6 8 6 7 5 3 4 3 5 9 8 8 4 6 8 9 7 6 4 3 1 2 3 3 5 7 8 10 12 13 13
4 5 5 4 3 3 5 3 2 3 4 5 6 6 6 4 1 2 3 1 4 4 1 2 1 1 1 2 1 4 2 4 11 12 12 11 10 9 8 6 5 4 2 2 3 3 4 7 9 11 12 11 11 12
Wind_Direction
269 272 276 281 285 286 292 300 309 317 328 327 329 341 340 342 355 319 49 279 301 283 289 227 237 235 200 236 294 101 201 147 296 274 310 282 271 311 278 295 305 213 194 201 239 232 213 5 210 271 8 57 100 104
263 266 269 271 277 282 284 290 294 307 313 315 315 325 334 331 343 327 275 165 303 263 324 296 271 257 266 293 288 157 310 27 126 263 247 292 279 297 309 220 205 261 344 324 358 32 47 35 35 5 301 80 100 89
256 257 261 267 271 281 281 280 282 280 285 293 304 304 315 325 323 336 295 327 233 269 250 226 210 216 234 240 261 283 141 108 167 217 290 300 268 215 251 212 256 337 337 283 207 81 60 47 40 30 13 66 100 108
243 255 251 258 264 268 273 276 273 272 271 273 283 283 299 299 299 287 273 105 269 292 278 116 154 196 180 211 233 260 95 148 132 160 231 259 225 227 286 319 301 290 314 144 88 107 106 61 31 32 30 57 88 77
243 248 251 250 255 262 267 269 272 269 266 259 266 273 278 280 273 244 264 245 261 291 322 317 269 192 209 197 204 205 209 205 186 175 222 257 207 210 205 251 210 291 345 329 75 131 79 89 35 33 49 46 48 68
243 240 246 247 250 258 263 264 265 267 264 255 256 258 257 239 230 235 216 167 205 246 273 277 89 186 163 205 228 215 228 229 255 248 186 262 256 262 257 58 100 67 20 346 132 99 96 119 87 64 54 48 38 37
239 237 243 248 253 263 267 275 279 273 262 253 255 253 247 210 225 222 354 36 92 269 261 269 200 134 205 220 221 235 209 237 257 282 228 287 245 248 285 273 136 122 109 90 113 133 115 152 92 79 61 66 96 67
240 242 244 246 252 268 274 281 279 275 268 243 200 217 195 170 267 251 239 210 284 298 268 278 261 195 191 206 209 201 254 208 192 283 227 247 164 227 281 109 124 126 107 100 114 57 79 108 110 103 74 62 69 57
237 242 245 246 254 266 275 275 278 276 258 181 158 165 151 189 190 120 83 130 212 253 272 280 280 21 175 169 252 199 254 253 83 264 189 265 228 235 29 157 163 167 184 148 142 120 124 119 107 109 109 112 87 70
229 239 241 244 258 268 268 272 272 247 162 143 170 187 156 181 123 138 191 190 177 184 228 248 240 264 266 158 126 284 210 313 275 58 283 217 302 72 163 144 156 166 149 152 142 139 127 117 112 102 91 84 81 75
221 227 232 241 251 259 263 258 231 152 157 195 189 92 82 148 184 201 182 227 154 223 219 237 260 260 159 289 46 227 346 354 267 101 283 249 267 158 161 153 152 158 159 162 136 124 118 122 125 120 108 97 84 72
217 222 224 232 239 242 234 220 171 188 21 83 92 106 152 213 211 235 201 146 223 215 233 250 166 233 114 268 265 166 282 222 271 9 269 286 116 141 161 159 159 162 162 154 148 137 132 126 117 113 107 99 90 88
214 215 215 218 221 217 212 180 175 117 133 126 149 155 179 182 215 231 182 181 205 180 234 205 192 238 163 233 257 234 242 252 306 233 303 352 97 148 162 161 161 161 161 160 158 154 147 138 140 141 125 121 110 91
206 207 210 207 206 195 187 174 164 151 162 188 181 162 217 195 239 284 283 358 66 108 198 42 88 210 249 231 254 251 68 261 261 253 129 49 114 157 166 165 167 170 174 175 174 173 177 183 187 192 200 195 235 283
199 199 192 212 211 189 173 164 153 198 163 214 227 215 212 214 168 251 275 289 124 137 154 126 155 261 258 254 240 235 214 241 241 314 3 55 123 157 171 172 173 172 179 185 188 190 195 203 210 214 223 253 269 282
169 149 208 158 150 166 151 131 143 191 179 230 238 235 182 195 219 217 240 244 200 143 174 232 163 219 225 259 232 214 241 254 189 358 7 102 156 165 172 176 176 173 180 187 190 201 210 219 238 254 264 264 266 265
157 201 155 168 146 139 146 130 168 197 221 223 233 219 258 333 243 245 281 234 158 165 211 195 214 185 139 228 242 210 226 15 8 338 10 82 158 163 166 170 171 172 179 189 197 208 227 234 247 251 254 258 259 260
122 144 135 132 134 146 134 209 206 200 238 230 246 219 192 235 222 208 225 193 191 210 172 223 321 234 225 230 214 168 303 319 351 3 103 124 132 145 162 169 173 176 182 190 202 211 215 230 237 242 248 253 257 259
133 134 142 151 153 151 166 175 251 253 233 255 239 239 234 241 207 243 224 184 220 235 154 173 252 250 230 256 286 310 316 302 8 131 117 124 136 150 161 168 181 189 193 193 202 216 222 226 258 268 272 269 259 265
119 132 139 122 322 175 167 157 220 264 259 345 261 257 249 280 189 195 183 185 188 189 212 211 233 283 224 267 349 324 328 23 175 159 148 142 148 159 171 181 189 183 202 204 219 235 252 247 245 242 253 285 293 284
113 138 131 12 19 274 278 182 218 245 305 261 278 266 286 188 215 194 164 183 194 223 227 232 227 229 270 296 309 316 188 248 229 217 159 158 166 176 164 189 188 201 208 213 227 232 214 257 277 285 291 282 273 273
102 151 114 143 243 189 258 195 270 279 243 271 261 230 263 234 206 165 138 198 228 236 231 265 255 268 245 228 238 212 86 170 162 127 130 130 171 185 189 193 199 216 217 228 235 245 254 252 243 253 255 250 216 268
134 143 139 177 191 157 260 196 246 190 251 227 242 249 226 221 107 141 205 210 239 238 240 236 245 255 16 112 134 135 150 170 167 138 155 189 181 198 209 209 220 237 249 247 239 248 259 254 214 241 228 215 228 235
175 181 173 176 183 203 186 206 218 241 244 234 231 246 246 167 152 228 246 198 152 137 189 184 196 154 153 175 162 130 153 196 162 161 184 198 201 196 227 270 285 289 281 280 285 279 257 256 213 210 224 225 221 236
115 191 143 194 192 216 208 197 209 221 250 209 224 236 225 176 215 226 265 104 149 177 149 170 188 205 171 129 130 135 170 210 184 177 175 230 277 267 230 218 231 235 250 270 262 261 265 248 234 222 220 227 249 260
192 178 193 186 173 232 202 214 208 203 258 232 240 274 253 240 228 150 80 34 68 138 166 183 190 183 192 161 156 166 176 207 219 244 186 249 289 305 317 327 318 115 77 286 302 302 293 269 221 223 248 240 197 262
198 179 177 151 264 269 262 251 278 261 249 240 168 223 216 334 305 84 67 343 351 28 300 224 203 198 183 170 159 147 155 177 216 304 95 261 291 298 309 335 352 46 18 349 325 306 294 194 247 289 299 285 271 276
265 286 223 162 200 220 281 281 226 232 267 307 221 220 254 169 192 158 77 285 317 317 302 206 202 205 183 163 177 169 178 186 178 208 213 217 218 226 237 124 71 68 42 27 25 120 100 46 35 34 21 321 309 289
218 206 214 218 192 234 239 240 252 235 207 247 295 275 204 119 152 172 240 267 318 314 262 181 182 200 199 204 213 215 204 191 196 200 212 236 185 170 166 149 150 150 110 110 50 37 46 8 357 348 329 318 310 296
233 198 205 206 218 221 219 203 244 289 330 291 318 302 249 223 257 201 249 264 272 260 222 203 181 203 218 220 221 214 219 199 218 228 229 233 223 117 144 144 140 122 99 116 141 141 191 241 213 238 272 309 329 345
122 188 227 239 262 262 265 279 269 292 268 266 236 248 271 294 294 249 223 232 254 253 222 213 226 229 247 244 246 241 213 184 231 236 260 299 126 140 135 134 135 127 113 97 61 6 359 316 350 336 342 343 339 332
200 207 212 232 252 190 203 216 191 210 231 240 233 233 240 236 249 196 188 222 231 237 222 237 252 234 232 277 257 261 308 173 175 209 192 185 122 136 135 134 137 134 130 90 340 345 7 340 346 345 339 339 342 345
209 200 219 261 251 238 184 193 234 243 235 225 211 216 208 226 236 82 113 306 300 321 332 57 360 294 301 275 358 106 195 74 65 84 86 89 115 127 130 131 127 129 123 8 20 12 344 348 340 344 345 349 354 357